BEIDOU-3S IGSO-2S

Last updated on Sat Aug 30 2025 00:02:49 GMT+0000 (Coordinated Universal Time)

1 40938U 15053A 25241.04546229 -.00000083 00000+0 00000+0 0 9994 2 40938 49.6762 262.2550 0062160 189.5115 355.1077 1.00294480 36428
UTC large
Height (km)
Speed (km/s)
/
Latitude / Longitude
Inclination (degrees)
Orbital Period (minutes)
Azimuth
Elevation
Range (km)
Doppler Factor

Next 0 passes for location: London (51.5072 / 0.1276)

Sorry there are no passes over London.